GALAXY 19 (G-19)

Last updated on Sun Dec 21 2025 00:02:53 GMT+0000 (Coordinated Universal Time)

1 33376U 08045A 25354.49616263 -.00000115 00000+0 00000+0 0 9991 2 33376 0.0143 306.9474 0002519 327.2001 256.8006 1.00271451 63116
UTC large
Height (km)
Speed (km/s)
/
Latitude / Longitude
Inclination (degrees)
Orbital Period (minutes)
Azimuth
Elevation
Range (km)
Doppler Factor

Next 0 passes for location: London (51.5072 / 0.1276)

Sorry there are no passes over London.